SCP
5 5 5 5 5 4 4 5 6 6 6 6 7 7 6 5 5 5 4 3 3 3 3 3 3 3 2 2 1 1 1 1 1 1 1 1 1 1 2 2 2 1 1
6 5 5 4 4 4 5 5 6 6 6 6 7 7 6 6 6 6 5 4 3 3 3 3 2 2 2 1 1 1 1 1 1 1 1 1 2 2 2 3 2 2 1
5 5 4 4 4 4 5 5 6 6 6 6 7 7 8 8 7 7 6 4 3 2 2 3 2 2 1 1 1 1 1 1 1 1 1 1 2 2 3 4 4 3 3
5 4 5 5 4 4 4 4 5 5 6 7 8 9 9 8 7 6 5 3 2 2 2 2 2 2 1 1 1 1 1 1 1 2 1 1 2 2 3 4 4 4 4
5 5 6 6 5 4 4 4 4 6 7 9 9 8 7 6 5 4 3 3 3 3 2 2 2 1 1 1 1 1 2 2 2 2 2 2 2 3 3 4 4 5 5
7 7 7 6 5 6 7 7 7 8 9 8 7 6 5 4 3 2 2 3 3 3 2 2 2 1 2 2 2 2 2 2 2 3 3 3 3 3 3 4 4 5 5
9 8 7 6 6 7 9 10 10 9 7 5 4 4 4 3 2 1 1 2 2 2 2 2 2 2 2 2 2 2 2 2 2 2 2 3 3 3 3 4 5 5 5
9 8 7 7 7 9 10 9 8 7 6 4 3 3 3 2 1 0 0 1 1 2 2 2 2 2 1 1 1 2 2 1 1 1 1 2 2 2 3 3 4 5 5
7 7 7 8 8 9 8 6 5 5 5 4 4 3 3 1 1 0 0 1 1 1 2 2 2 1 1 1 1 1 1 1 1 1 1 1 1 1 1 2 2 3 3
7 7 7 7 8 7 6 5 4 4 4 4 4 4 2 1 0 0 0 1 1 1 2 2 1 1 1 0 1 1 1 1 1 1 1 1 1 1 1 1 1 2 2
7 7 6 6 6 6 7 6 5 5 4 4 4 3 2 1 1 0 0 0 1 1 1 1 1 0 0 0 0 0 1 1 1 1 1 1 1 1 1 1 1 1 2
5 5 5 5 5 6 7 7 7 5 4 3 3 3 2 1 1 0 0 0 0 1 1 1 0 0 0 0 0 0 0 0 1 1 1 1 1 1 1 1 1 1 1
5 5 5 5 6 6 6 7 7 6 4 3 3 3 2 1 1 0 0 0 0 0 0 0 0 0 0 0 0 0 0 0 0 1 1 1 1 1 1 1 1 1 1
4 4 4 4 5 5 6 7 7 5 4 4 4 3 2 1 1 0 0 0 0 0 0 0 0 0 0 0 0 0 0 1 1 1 1 1 1 1 0 0 0 1 1
3 3 3 3 4 4 5 6 6 4 4 4 4 4 2 1 1 0 0 0 0 1 1 1 0 0 0 0 1 1 1 1 1 1 2 2 1 1 0 0 0 1 1
2 3 3 3 3 3 4 5 4 3 2 3 3 3 2 1 0 0 0 0 0 0 1 1 1 1 0 0 1 1 1 1 2 2 1 1 1 1 0 0 0 0 1
2 2 3 3 2 3 4 4 4 2 1 1 2 2 1 0 0 0 0 0 0 0 1 1 1 1 0 0 1 1 1 1 1 1 1 1 1 0 0 0 0 0 0
2 2 3 3 3 3 4 4 3 2 2 1 1 0 0 0 0 0 0 0 0 0 0 1 1 1 0 0 1 1 1 1 1 1 1 1 1 0 0 0 0 0 0
1 2 3 3 3 3 3 3 3 3 3 2 1 1 0 0 0 0 0 0 0 0 0 0 0 0 0 0 1 1 1 1 1 1 1 1 1 1 0 0 0 0 0
1 1 2 2 2 2 2 2 2 3 3 2 1 1 0 0 0 0 0 0 0 0 0 0 0 0 0 0 0 0 1 1 1 1 1 1 1 1 1 0 0 0 0
1 0 1 1 1 1 1 1 2 3 3 2 1 0 0 0 0 0 0 0 0 0 0 1 1 0 0 0 0 0 0 0 1 1 1 1 1 1 1 1 0 0 0
1 1 1 1 1 1 1 1 1 2 3 2 1 0 0 0 0 0 0 0 0 0 0 0 0 0 0 0 0 0 0 0 0 0 1 1 1 1 0 0 0 0 0
1 1 1 1 1 0 0 0 0 1 1 1 0 0 0 0 0 1 1 1 1 0 0 0 0 0 0 0 0 0 0 0 0 0 0 0 1 0 0 0 0 0 0
1 1 0 0 0 0 0 0 0 0 0 0 0 0 0 0 1 1 1 1 1 1 0 0 0 0 0 0 0 0 0 0 0 0 0 0 1 1 0 0 0 0 0
1 0 0 0 0 0 0 0 0 0 0 0 0 0 0 0 1 1 1 1 1 1 0 0 0 0 0 0 0 0 0 0 0 0 0 0 1 1 1 0 0 0 0
0 0 0 0 0 0 0 0 0 0 0 0 0 0 0 0 0 1 1 1 1 1 0 0 0 0 0 0 0 0 0 0 0 0 0 0 0 1 1 1 0 0 0
Wind_Speed
5 4 4 4 3 3 2 2 2 2 2 2 2 2 2 2 1 1 1 2 2 2 1 1 1 1 1 2 2 1 1 1 1 1 1 0 1 1 2 2 3 4 6
4 5 4 3 3 3 3 2 3 2 2 2 2 1 1 2 1 1 1 1 1 1 1 1 1 1 1 1 2 2 2 1 1 1 1 1 1 2 2 2 2 3 3
5 5 4 3 3 3 3 3 2 2 2 2 2 1 1 1 1 0 1 0 0 0 0 1 1 0 1 1 1 2 1 1 1 1 1 1 1 1 2 2 2 2 3
4 5 4 4 3 3 3 3 2 2 2 1 1 1 1 1 1 1 0 1 0 0 0 0 0 0 1 1 1 1 1 1 1 1 1 1 1 1 1 1 2 2 3
3 4 4 4 3 3 3 3 2 2 2 1 1 1 0 1 2 2 1 1 1 0 0 0 1 1 1 0 1 1 1 1 2 1 1 1 1 1 1 1 2 1 2
2 3 4 4 4 4 3 3 2 2 1 1 0 1 1 1 3 4 3 2 1 1 1 1 1 1 1 2 1 1 1 1 2 1 1 1 2 1 1 2 1 1 2
1 2 3 3 3 3 3 3 3 2 1 1 0 1 2 2 3 3 3 2 2 1 1 1 1 1 1 0 1 2 3 3 3 2 2 3 2 2 2 3 2 2 2
2 2 2 3 3 3 3 2 2 2 2 1 1 1 1 2 2 1 2 2 2 2 1 1 1 1 2 2 1 1 2 2 3 3 2 3 2 2 2 3 3 3 3
3 2 2 3 3 3 3 3 2 2 2 2 2 1 1 2 1 1 1 2 2 2 2 1 1 0 2 2 1 2 2 2 3 2 3 3 4 4 3 2 2 2 3
3 3 2 3 3 3 3 2 2 2 2 2 2 1 1 2 3 2 2 2 2 2 1 1 1 1 2 1 1 2 3 3 3 2 3 4 4 5 5 4 3 3 3
2 2 2 2 2 3 3 2 2 2 2 3 2 2 3 3 5 4 3 2 2 2 1 1 1 3 2 1 2 2 3 4 3 3 3 3 2 2 2 3 3 2 2
1 1 1 2 3 2 3 3 3 3 3 3 3 3 2 3 4 5 6 5 3 3 3 1 1 2 2 3 3 4 5 5 4 3 3 2 2 2 2 2 2 3 3
1 1 1 2 2 3 3 4 4 4 4 3 3 3 2 2 3 5 6 5 4 3 2 2 2 4 4 4 6 6 4 3 3 3 3 2 2 2 2 1 1 2 2
2 1 2 2 3 3 3 3 4 3 3 2 2 1 1 2 2 2 2 2 3 3 3 3 4 6 6 5 4 4 4 3 3 3 3 2 1 1 1 1 1 1 2
2 2 2 3 3 3 3 2 2 1 2 2 2 1 1 1 2 2 2 2 2 1 2 2 3 3 3 3 3 3 3 3 2 2 3 3 2 2 2 2 1 2 2
2 2 2 2 2 2 3 2 0 1 2 2 2 2 1 2 4 4 3 3 2 1 2 3 3 3 3 3 3 2 2 2 1 2 2 2 2 2 2 2 2 2 2
3 3 2 2 2 2 2 2 2 1 1 1 2 4 4 4 5 4 3 3 3 3 3 4 4 3 3 3 2 2 2 1 1 1 2 2 2 2 2 2 2 2 3
3 3 3 3 2 2 3 3 3 3 3 2 2 3 5 5 5 4 3 1 2 4 4 4 3 3 2 2 2 1 1 1 1 2 2 2 2 2 3 3 3 3 3
3 2 2 2 2 3 3 3 3 3 2 3 2 2 3 4 3 4 4 4 4 4 3 3 2 2 2 1 1 2 1 1 1 1 1 2 2 3 3 3 3 4 4
2 3 3 3 3 2 2 2 2 1 1 2 2 3 3 3 3 3 4 4 4 3 2 1 1 1 1 2 2 1 1 1 1 1 1 2 2 3 4 4 3 3 3
3 3 3 3 2 2 2 2 1 1 1 1 2 3 4 3 3 4 3 3 3 2 1 1 1 1 1 1 2 2 2 1 1 1 2 2 3 3 3 3 3 3 3
3 3 3 2 2 2 2 2 2 1 1 1 1 3 6 3 2 2 2 2 1 1 1 1 2 2 1 2 2 2 1 2 2 2 2 3 3 3 3 3 3 3 3
4 3 2 2 1 1 3 2 1 1 1 1 1 2 2 2 2 2 1 0 0 0 0 1 2 2 2 2 2 2 2 2 3 3 3 3 3 3 3 3 4 4 4
4 3 2 1 2 1 1 1 1 1 1 1 1 1 1 2 2 1 1 0 0 1 1 1 2 2 3 3 2 3 3 3 3 3 4 4 4 4 3 3 4 4 4
3 2 2 2 2 1 1 1 1 1 1 1 1 1 1 1 1 1 0 1 1 1 2 1 1 1 3 3 3 3 3 3 3 3 4 4 4 4 4 5 4 3 4
3 2 2 2 1 1 1 1 1 1 0 1 1 1 1 1 0 1 1 1 1 1 1 1 2 2 2 2 3 3 2 3 3 4 3 4 4 4 4 4 4 4 4
Wind_Direction
141 135 129 138 136 132 130 133 129 129 136 140 139 134 130 146 164 161 214 180 194 205 213 214 240 263 302 308 293 280 270 244 251 289 312 246 152 164 146 193 188 177 186
135 129 133 135 136 137 133 128 128 128 131 128 118 120 133 131 134 167 242 200 193 200 204 211 250 251 251 289 305 302 294 280 248 288 300 295 231 187 188 218 210 202 197
141 140 137 137 133 130 126 125 125 126 121 121 131 139 126 116 125 176 253 15 116 168 239 232 240 273 266 263 270 277 282 293 250 246 257 258 249 215 217 232 232 226 229
145 146 146 149 146 141 136 134 134 138 137 143 145 136 133 99 73 41 28 307 67 99 32 315 79 357 317 300 273 296 308 331 312 272 271 262 251 245 226 254 256 240 232
154 155 150 151 152 150 148 154 157 156 157 147 138 129 113 90 41 31 338 280 344 360 339 301 83 68 62 333 308 331 334 309 287 283 275 287 288 303 276 267 263 266 272
145 155 149 155 157 160 166 166 153 146 139 139 145 78 52 57 53 44 15 346 328 318 305 294 180 175 179 200 233 240 262 285 297 300 300 300 302 305 314 301 287 290 283
150 159 157 160 163 166 172 159 163 158 149 155 173 111 101 82 70 47 19 328 300 284 272 280 292 348 95 95 261 244 253 254 242 255 279 283 284 299 314 308 309 297 268
164 194 181 174 167 162 166 162 165 168 180 192 204 179 134 113 108 61 349 299 288 280 284 300 320 356 4 15 334 306 271 275 247 235 252 270 279 282 285 280 277 273 264
191 196 192 182 174 178 175 176 175 177 184 206 212 203 146 124 137 143 310 283 260 261 258 282 290 76 53 29 345 311 300 288 262 249 238 247 255 262 253 282 291 287 281
209 207 196 196 184 180 177 177 182 182 194 210 216 199 172 163 184 198 222 264 267 262 247 207 98 109 104 55 340 309 297 296 310 305 281 258 250 249 238 226 252 274 281
221 217 204 203 196 174 173 180 193 201 206 206 207 209 204 184 178 192 200 250 298 311 296 241 134 144 158 251 281 279 278 297 292 274 262 250 240 237 233 226 227 239 260
257 231 206 204 218 189 178 188 196 202 215 211 207 210 205 181 176 191 203 223 277 299 302 315 133 170 233 261 260 261 279 295 279 271 262 251 244 240 244 235 229 236 237
287 256 227 233 227 199 193 194 200 201 216 219 209 206 201 178 168 184 205 233 253 269 306 327 276 245 253 252 243 253 266 269 273 276 272 262 248 246 245 233 226 241 268
284 271 249 234 227 208 210 209 209 207 212 222 221 200 192 168 140 148 198 223 236 243 263 272 256 249 252 255 249 242 239 247 254 267 277 274 263 256 250 241 247 250 263
284 268 256 245 223 200 211 231 229 226 214 208 217 212 222 205 179 176 202 228 247 274 278 254 254 242 237 235 235 233 237 243 256 271 289 301 293 273 266 254 250 257 261
273 264 262 259 233 200 197 198 184 205 176 176 185 197 194 171 172 186 214 235 238 239 249 255 255 254 254 253 248 236 226 226 242 258 267 277 281 284 283 280 269 263 267
282 273 260 262 249 221 213 207 205 202 181 186 209 205 199 179 179 195 220 249 259 223 230 250 253 255 256 251 247 244 232 218 219 259 273 279 285 294 297 291 286 279 281
277 268 265 256 248 236 227 224 218 208 196 197 207 201 193 187 195 210 215 224 251 229 235 244 248 252 261 271 282 277 267 235 222 249 269 288 296 293 292 293 288 289 294
275 277 276 276 262 247 242 240 229 221 199 177 164 162 198 191 205 229 210 228 247 253 250 253 264 280 291 294 285 281 277 262 260 263 286 300 297 296 292 288 285 284 279
265 256 255 258 258 253 249 250 252 234 193 178 170 155 157 173 198 209 215 229 242 256 267 275 290 301 296 291 293 294 309 315 313 315 325 314 304 299 294 292 292 288 282
266 258 254 254 254 252 246 253 261 250 229 201 173 159 168 195 213 217 217 225 239 253 280 295 290 286 287 310 317 319 323 332 355 351 336 317 306 300 296 295 291 290 292
268 251 239 253 256 247 245 246 247 245 240 189 174 169 180 210 231 234 231 227 225 235 284 306 307 316 354 353 343 333 338 354 355 337 315 297 289 292 299 298 298 298 293
262 255 252 252 261 228 224 226 246 261 258 247 226 178 183 230 250 246 243 248 24 8 358 349 331 342 9 14 4 359 2 1 345 334 313 303 302 300 294 286 285 291 293
269 263 250 231 231 226 221 219 223 231 234 238 267 242 212 226 259 274 279 308 66 25 29 38 22 16 20 11 10 27 32 12 347 330 322 314 307 302 297 289 282 279 278
276 279 265 244 238 209 176 242 247 221 207 214 227 238 243 241 254 263 261 92 82 72 66 53 24 16 27 19 18 33 28 17 5 338 319 306 296 293 290 289 293 300 299
290 277 265 249 227 198 182 190 215 236 237 221 227 287 280 260 301 357 31 82 99 84 74 66 47 39 38 35 35 42 36 12 346 325 309 300 293 292 295 294 296 295 294